Temperature
26 28 27 27 27 27 27 27 27 27 27 26 25 25 24 23 22 22 21 20 20 20 19 18 18 18 17 17 17 17 17 17 16 16 16 16 15 15 15 15 15 15 15 15
27 27 27 27 27 27 27 27 27 26 26 26 25 25 24 23 23 22 21 20 20 19 19 18 17 17 17 17 17 17 17 17 16 16 16 15 15 15 15 15 15 15 14 14
27 27 27 26 26 26 27 26 26 26 26 26 25 25 24 24 22 21 20 20 19 19 19 18 17 17 17 17 16 16 16 16 16 16 15 15 15 15 15 15 14 14 14 14
27 27 26 26 26 26 26 26 26 25 25 26 26 25 24 24 23 22 21 20 19 19 18 18 17 17 16 16 16 16 16 16 16 15 15 15 15 15 14 14 14 14 14 14
26 26 26 26 25 25 26 26 26 26 26 26 26 25 25 24 23 22 21 20 19 19 18 17 17 17 16 16 16 16 16 15 15 15 15 15 14 14 14 14 14 14 13 13
26 26 25 25 26 25 25 25 26 26 26 25 25 24 24 23 22 21 21 20 19 18 18 17 17 17 16 16 16 15 15 15 15 15 15 14 14 14 14 14 14 13 13 13
26 26 25 25 25 25 25 25 25 25 25 25 24 24 22 22 22 21 20 19 19 18 18 17 17 16 16 15 15 15 15 14 14 14 14 14 14 14 14 13 13 13 13 13
25 25 25 25 24 24 24 24 23 23 23 24 24 23 22 22 21 20 19 19 18 18 17 17 16 16 16 15 15 14 14 14 14 14 14 14 14 14 13 13 13 13 13 13
24 24 24 24 24 24 24 24 24 23 23 23 23 23 22 21 21 20 19 18 18 17 17 16 16 15 15 15 15 14 14 14 14 14 14 14 14 13 13 13 13 13 13 13
23 23 24 24 24 24 24 24 23 23 21 21 22 22 21 20 20 20 19 18 18 17 16 16 16 15 15 14 14 14 14 14 14 14 13 13 13 13 13 13 12 12 12 12
23 22 23 23 23 23 23 23 23 23 22 21 20 21 20 20 19 19 19 18 17 17 16 16 15 15 14 14 14 14 14 13 13 13 13 13 13 13 13 13 13 12 12 12
22 22 22 23 23 23 23 22 22 21 21 21 20 20 20 19 19 18 18 17 17 16 16 15 15 15 14 14 14 14 13 13 13 13 13 13 13 13 13 12 12 12 12 12
22 21 22 22 22 22 22 22 22 22 21 21 20 20 20 20 19 18 17 17 16 16 15 15 15 14 14 14 13 13 13 13 13 13 13 13 13 13 12 12 12 12 12 12
20 21 21 21 21 22 21 21 21 21 21 20 20 20 20 19 19 18 17 17 16 16 15 15 14 14 14 14 13 13 13 13 13 13 13 13 13 12 12 12 12 12 12 12
21 21 21 21 21 21 21 21 21 20 20 20 20 20 19 19 18 18 17 16 16 15 15 14 14 13 13 13 13 13 13 13 13 13 13 13 12 12 12 12 12 12 12 12
20 20 21 21 21 21 20 20 20 20 20 20 20 19 19 18 18 17 17 16 16 15 14 14 13 13 13 13 13 13 13 13 13 13 13 12 12 12 12 12 12 12 12 12
21 20 20 21 21 21 20 20 20 20 20 19 19 19 19 18 18 17 16 16 15 15 14 13 13 13 13 13 13 13 13 13 13 13 13 12 12 12 12 12 12 12 11 11
19 19 20 21 20 20 20 20 20 19 19 19 18 18 18 17 17 16 15 15 15 14 13 13 13 13 13 13 13 13 13 13 13 13 12 12 12 12 12 12 12 11 11 11
18 19 20 20 20 20 20 19 19 19 19 18 18 17 17 17 17 17 15 14 14 13 13 13 13 13 13 13 13 13 13 13 13 13 12 12 12 12 12 12 11 11 11 11
18 18 19 19 19 19 19 19 18 18 18 18 17 17 16 16 17 17 15 14 14 13 13 13 13 13 13 13 13 13 13 13 13 12 12 12 12 12 12 12 12 11 11 11
19 19 19 19 19 19 19 18 18 18 17 16 16 16 16 16 15 14 14 14 13 13 13 13 13 13 13 13 12 12 12 12 12 12 12 12 12 12 12 12 11 11 11 11
19 19 19 19 19 19 17 18 17 17 16 16 16 15 15 15 14 14 14 13 13 13 13 13 13 13 13 13 12 12 12 12 12 12 12 12 12 12 12 12 11 11 11 11
19 19 19 19 19 17 17 16 16 15 15 15 15 15 14 14 14 14 13 13 13 13 13 13 13 13 12 12 12 12 12 12 12 12 12 12 12 12 12 11 11 11 11 11
19 17 18 18 18 18 16 16 15 15 15 15 14 14 14 14 14 14 13 13 13 13 13 13 13 13 12 12 12 12 12 12 12 12 12 12 12 12 12 11 12 12 11 11
18 17 17 17 18 17 16 16 15 15 14 14 14 14 14 14 14 13 13 13 13 13 13 13 13 13 13 12 12 12 12 12 12 12 12 12 12 12 12 12 12 12 11 11
17 17 17 17 16 16 16 15 14 14 14 14 14 14 14 14 13 13 13 13 13 13 13 13 13 13 13 12 13 12 12 12 12 12 12 12 12 12 12 12 12 12 11 11
Wind_Speed
4 5 3 3 4 6 6 6 6 4 2 3 3 2 2 3 4 5 5 5 5 5 5 4 2 2 1 2 3 4 5 5 5 4 4 4 4 4 3 3 4 5 5 5
5 3 2 3 3 5 6 7 6 3 2 4 3 2 1 2 4 5 5 5 6 6 6 5 3 2 1 2 2 4 5 5 6 5 4 3 3 3 3 3 3 4 4 5
4 3 3 3 3 5 6 6 6 6 5 5 4 4 3 2 4 6 6 6 6 7 6 5 4 3 2 1 2 3 4 5 5 5 4 3 3 3 3 3 3 3 4 4
1 3 2 3 4 7 6 5 7 7 8 5 5 6 1 2 4 6 6 6 6 7 6 5 4 4 3 2 1 2 2 4 4 5 4 4 4 3 3 3 3 4 4 4
0 3 4 4 5 6 6 7 8 9 9 7 5 7 2 3 5 7 7 7 7 7 6 5 4 3 3 2 1 0 1 2 3 4 4 4 4 3 3 3 3 3 4 5
1 2 3 5 4 3 6 6 7 9 8 6 4 6 3 5 7 9 9 7 7 7 7 6 5 4 3 2 1 1 1 1 2 3 4 4 4 3 3 3 3 4 4 4
2 2 2 4 5 2 6 8 5 4 4 3 3 4 3 7 7 9 9 8 7 7 6 6 6 5 4 3 2 1 0 1 2 2 3 4 4 4 5 5 4 4 4 3
3 1 4 5 6 6 5 7 6 7 7 7 4 3 3 6 7 8 9 8 8 8 8 7 6 5 4 3 1 1 0 1 2 2 2 3 4 4 3 4 4 4 3 3
4 2 2 4 5 6 5 5 6 7 8 8 4 3 1 5 8 10 10 10 10 9 9 8 7 5 4 3 2 1 0 1 1 2 2 3 3 3 3 3 4 3 3 3
4 4 2 2 2 3 5 5 5 5 6 7 6 4 6 11 12 12 12 11 10 10 9 8 6 5 4 3 2 1 0 1 1 2 2 2 2 3 3 3 2 2 2 2
5 4 2 2 3 5 4 4 4 4 4 6 7 4 6 10 11 12 11 11 10 10 9 8 7 6 4 4 2 1 1 1 1 1 1 1 1 2 3 2 3 3 2 3
3 4 4 2 1 2 3 5 5 5 5 5 7 4 5 8 10 10 10 10 10 9 9 8 8 7 6 4 3 2 1 1 1 1 1 2 1 1 2 2 2 3 3 4
3 3 4 3 4 1 2 3 4 5 5 6 7 5 5 9 10 10 10 10 9 8 8 8 7 6 5 5 3 2 1 1 1 1 1 1 1 1 1 2 2 2 3 3
3 2 4 5 5 5 5 5 5 6 5 6 7 11 11 12 13 12 10 9 8 7 7 8 7 7 6 5 4 3 2 1 2 1 0 1 1 1 1 1 1 2 2 2
3 2 3 4 4 5 6 7 6 5 6 8 10 11 12 12 12 11 10 9 8 8 8 8 7 7 6 5 4 3 3 2 2 1 0 1 1 1 1 1 1 1 1 1
2 3 4 5 3 5 6 6 6 5 6 7 9 9 10 11 10 10 9 8 8 8 8 8 7 7 6 5 4 3 2 2 2 1 0 1 0 0 0 0 1 1 1 1
2 3 5 5 4 6 4 4 4 5 5 7 8 9 11 11 11 11 9 8 8 8 8 7 7 6 5 5 4 4 3 2 1 1 1 1 0 0 0 0 1 1 1 0
4 4 4 5 5 3 2 3 4 5 5 5 7 9 10 10 10 8 7 8 8 8 7 6 6 6 5 4 4 3 2 2 1 1 1 1 1 0 0 1 0 0 1 1
3 3 3 4 5 4 1 2 4 6 5 4 7 9 10 10 8 5 7 8 8 7 6 5 5 5 4 4 3 3 3 2 2 1 1 2 2 1 0 0 1 1 1 1
3 4 4 4 5 3 2 4 5 6 4 5 8 10 11 10 7 6 9 9 8 7 5 5 5 4 3 3 3 3 3 3 3 3 2 2 2 2 1 1 1 1 1 2
2 3 5 6 5 3 4 4 4 4 5 8 9 10 10 8 7 8 9 8 6 6 5 5 5 4 3 3 3 2 2 3 2 3 2 2 2 2 1 1 1 2 2 2
4 4 4 4 5 2 4 3 4 6 8 9 10 9 9 9 8 8 7 7 6 5 5 5 4 4 3 3 3 2 2 2 2 2 2 2 2 2 1 2 2 2 3 3
4 4 4 3 3 3 2 4 5 7 9 9 9 9 9 9 9 8 7 7 6 5 5 4 4 4 3 3 2 3 2 2 2 1 1 2 2 2 2 2 3 3 3 4
4 2 5 6 5 4 4 5 5 6 8 9 9 9 8 9 9 8 7 6 5 5 5 4 4 3 3 3 2 2 2 2 2 1 2 1 2 2 2 3 3 3 3 4
5 4 6 8 7 6 3 5 8 9 9 9 8 8 8 8 8 7 7 6 5 4 4 4 4 4 4 3 3 2 2 2 2 2 2 2 2 2 2 2 3 3 3 3
6 7 7 6 4 6 7 8 10 10 10 9 9 8 7 7 8 7 6 5 5 4 4 4 4 4 4 4 3 3 3 3 3 3 3 2 2 2 2 2 1 1 2 0
Wind_Direction
222 246 278 323 314 303 296 296 294 308 319 309 303 326 38 43 38 32 30 22 12 360 1 359 341 320 267 223 207 207 207 195 189 189 201 207 213 212 211 209 210 216 218 213
231 247 329 323 306 289 284 288 293 301 322 303 287 291 87 50 28 21 19 9 359 356 360 2 353 348 287 236 230 217 207 197 197 195 204 216 218 215 206 205 203 220 219 213
267 10 4 301 309 305 293 300 310 307 297 250 250 245 155 84 41 24 15 6 360 354 350 350 340 316 298 264 250 245 219 198 196 197 197 193 198 209 205 196 204 213 213 206
272 18 329 311 332 318 300 324 297 281 278 282 276 289 97 57 29 16 4 360 358 355 354 354 346 327 315 299 260 251 228 206 196 195 207 208 220 225 227 221 206 199 203 213
51 15 347 338 345 325 327 313 282 271 272 282 273 283 352 32 359 3 1 358 356 356 2 2 354 338 332 338 355 176 168 184 192 204 213 221 228 226 217 211 196 208 203 212
70 39 3 347 329 323 321 292 268 247 253 269 324 298 325 20 355 350 355 357 359 360 4 2 3 3 355 356 20 68 101 195 211 215 220 221 221 219 213 215 209 214 211 212
201 104 51 350 328 348 335 319 287 268 269 306 3 300 8 27 5 351 349 351 357 0 359 0 359 356 348 346 360 21 98 237 230 223 220 217 219 221 220 223 214 223 224 222
299 308 41 12 351 329 343 329 321 307 311 314 308 318 30 23 3 356 0 2 4 1 357 357 354 346 340 336 340 336 309 267 239 219 217 213 219 231 232 231 236 227 235 233
330 329 52 11 358 334 328 335 324 293 290 290 307 323 78 18 3 0 1 359 358 357 357 355 354 352 345 342 329 311 267 260 239 214 206 207 215 234 239 230 229 230 225 225
325 295 332 333 283 35 351 329 304 305 312 306 311 326 354 355 353 353 353 351 353 353 355 359 360 355 348 341 338 355 4 248 234 209 216 212 216 221 222 221 217 222 226 234
320 287 292 287 340 351 349 346 320 304 307 304 310 336 18 353 349 344 345 346 348 350 355 1 3 1 358 359 8 21 4 272 237 207 199 214 215 213 219 217 211 212 224 237
336 298 295 301 61 352 345 342 328 313 313 297 297 316 38 358 346 346 344 347 350 355 360 5 5 6 1 8 11 20 358 332 285 208 174 193 203 200 205 207 212 217 231 241
333 290 279 211 175 156 347 345 324 301 290 297 297 316 8 349 346 349 345 346 349 355 1 7 9 5 2 6 6 4 346 349 317 264 181 179 205 210 216 215 216 223 234 244
308 297 305 314 325 323 316 322 315 298 296 302 303 311 327 341 341 341 342 343 345 352 2 7 9 4 4 5 2 353 350 358 332 309 183 151 198 216 219 208 202 222 233 239
305 285 301 300 303 295 298 308 306 297 301 298 308 314 327 337 333 333 337 341 348 352 358 1 360 359 0 5 0 355 356 355 339 313 194 157 191 208 200 201 189 192 209 217
315 297 295 284 278 288 287 296 294 291 294 296 305 313 335 333 333 335 340 344 348 349 349 351 351 351 354 359 358 351 354 354 340 329 45 112 135 202 120 137 157 150 157 185
286 284 295 297 309 286 276 301 294 291 301 306 314 325 332 332 335 336 337 344 344 343 343 343 344 345 347 347 346 342 344 350 347 10 55 81 33 17 91 149 114 135 157 197
277 279 281 297 298 287 55 33 341 317 315 325 327 330 333 331 325 330 342 344 341 341 340 340 339 341 340 337 338 334 347 357 17 43 55 38 351 340 201 190 170 178 233 288
248 261 280 287 290 280 168 3 333 310 303 350 341 336 335 332 315 340 2 349 339 336 332 329 329 327 331 332 339 344 357 356 356 8 11 1 334 331 271 248 246 268 281 305
186 231 259 271 289 297 28 13 335 290 271 21 346 333 332 329 321 345 352 340 338 337 334 329 327 329 332 335 342 341 350 354 350 343 333 341 338 333 326 326 276 265 278 292
230 235 256 269 271 276 43 3 316 291 348 345 329 325 325 323 316 317 319 324 330 328 327 324 323 328 333 336 336 336 348 346 339 338 335 330 331 322 301 293 282 287 285 299
272 273 259 268 268 292 51 346 333 331 328 319 319 319 318 314 312 311 312 315 317 317 321 322 322 328 338 337 328 332 344 338 337 343 336 328 319 310 301 277 277 284 288 275
253 291 296 281 307 27 335 324 322 316 311 313 315 314 310 307 311 313 311 311 307 307 311 314 319 326 330 325 312 314 322 324 323 334 326 318 313 301 293 274 268 268 274 287
239 260 263 266 266 297 306 318 320 319 316 313 308 306 305 303 305 308 308 306 303 303 303 304 306 315 318 314 305 303 309 311 300 292 286 283 291 288 281 282 281 288 300 304
278 253 257 262 280 293 283 321 326 325 320 316 315 311 307 304 303 303 303 301 299 297 299 299 298 303 308 311 311 312 308 303 293 291 290 291 291 297 285 281 291 292 309 313
245 251 261 275 305 300 306 315 319 318 316 316 313 315 311 305 303 302 300 298 295 292 292 292 296 299 303 305 307 309 304 294 289 286 289 290 290 287 285 289 279 335 292 275
Height
1502 1499 1496 1495 1494 1494 1493 1494 1494 1492 1491 1493 1493 1494 1496 1497 1497 1496 1497 1497 1497 1497 1497 1496 1496 1495 1495 1495 1495 1495 1496 1496 1497 1498 1499 1500 1501 1501 1502 1502 1503 1504 1504 1505
1498 1497 1495 1495 1495 1494 1493 1494 1491 1490 1491 1492 1492 1493 1494 1496 1497 1498 1498 1497 1497 1496 1495 1495 1494 1494 1493 1493 1493 1494 1494 1494 1495 1496 1497 1498 1499 1499 1500 1500 1500 1501 1502 1502
1497 1496 1497 1497 1495 1495 1492 1492 1493 1493 1491 1488 1491 1492 1492 1493 1496 1497 1498 1498 1497 1496 1494 1494 1493 1493 1492 1492 1491 1491 1491 1492 1492 1493 1494 1495 1496 1497 1498 1498 1498 1499 1499 1500
1495 1497 1497 1495 1495 1494 1493 1490 1491 1491 1491 1487 1489 1493 1490 1491 1493 1496 1497 1497 1496 1495 1494 1493 1492 1491 1490 1490 1489 1488 1489 1489 1490 1491 1492 1493 1494 1494 1495 1496 1496 1497 1497 1498
1497 1498 1498 1498 1497 1496 1493 1492 1489 1487 1487 1487 1485 1489 1488 1489 1493 1495 1496 1496 1496 1494 1493 1492 1491 1490 1489 1488 1487 1487 1486 1487 1488 1488 1489 1490 1491 1492 1493 1493 1494 1494 1495 1495
1498 1500 1500 1499 1497 1497 1494 1490 1485 1483 1482 1493 1489 1493 1493 1492 1496 1496 1496 1495 1495 1494 1492 1491 1490 1489 1487 1487 1486 1485 1485 1485 1486 1486 1487 1488 1488 1488 1490 1491 1491 1493 1493 1494
1498 1498 1500 1501 1497 1494 1493 1492 1492 1491 1491 1492 1489 1493 1497 1496 1497 1497 1497 1496 1494 1493 1492 1490 1489 1487 1486 1486 1485 1485 1484 1484 1484 1484 1485 1485 1485 1486 1487 1488 1489 1490 1491 1491
1502 1502 1501 1501 1501 1499 1496 1496 1505 1508 1502 1494 1489 1495 1495 1497 1498 1498 1498 1496 1494 1493 1491 1490 1488 1487 1486 1485 1484 1484 1483 1483 1483 1483 1483 1483 1484 1485 1485 1486 1487 1487 1488 1489
1506 1506 1502 1504 1503 1500 1498 1497 1496 1500 1497 1500 1493 1493 1494 1496 1497 1498 1497 1496 1494 1493 1491 1489 1487 1486 1485 1484 1483 1482 1482 1481 1481 1481 1481 1481 1482 1482 1483 1483 1484 1484 1484 1485
1508 1511 1503 1504 1502 1502 1500 1499 1498 1501 1511 1511 1500 1499 1503 1500 1499 1498 1498 1496 1495 1494 1491 1489 1487 1486 1484 1483 1482 1481 1481 1480 1480 1480 1480 1480 1480 1481 1481 1481 1481 1481 1482 1482
1509 1512 1507 1504 1505 1506 1503 1503 1502 1501 1504 1513 1513 1508 1502 1503 1503 1501 1499 1498 1496 1494 1492 1490 1488 1486 1484 1482 1481 1480 1480 1479 1479 1479 1479 1479 1479 1479 1480 1480 1479 1479 1479 1480
1512 1510 1509 1506 1506 1506 1505 1505 1504 1510 1511 1508 1511 1510 1501 1503 1503 1502 1500 1498 1497 1495 1492 1490 1488 1486 1484 1482 1481 1480 1479 1479 1479 1478 1477 1477 1478 1478 1478 1478 1478 1477 1477 1477
1514 1513 1513 1508 1509 1507 1506 1506 1505 1505 1506 1508 1511 1510 1501 1502 1502 1501 1500 1499 1496 1495 1492 1490 1488 1486 1484 1483 1481 1480 1479 1479 1478 1478 1477 1476 1476 1477 1476 1476 1475 1475 1475 1475
1517 1513 1515 1517 1513 1509 1509 1507 1505 1505 1507 1509 1509 1507 1501 1501 1501 1501 1500 1499 1496 1494 1493 1491 1488 1487 1485 1483 1481 1480 1479 1479 1478 1477 1476 1476 1475 1475 1475 1474 1473 1473 1473 1472
1516 1513 1511 1510 1509 1509 1509 1509 1507 1508 1508 1510 1508 1506 1503 1503 1503 1501 1500 1498 1496 1494 1493 1491 1489 1487 1485 1483 1482 1480 1479 1478 1477 1477 1476 1475 1475 1475 1474 1473 1472 1471 1471 1471
1517 1515 1513 1511 1508 1508 1509 1508 1507 1507 1507 1507 1506 1505 1504 1505 1503 1501 1500 1498 1496 1494 1493 1491 1489 1487 1485 1483 1482 1481 1479 1479 1477 1476 1476 1475 1475 1474 1473 1472 1471 1470 1470 1470
1515 1516 1514 1509 1506 1507 1508 1506 1506 1506 1506 1507 1508 1507 1505 1503 1502 1501 1499 1498 1497 1495 1493 1491 1489 1487 1485 1483 1482 1480 1479 1478 1477 1476 1476 1475 1474 1473 1472 1471 1470 1470 1469 1469
1518 1517 1513 1509 1510 1514 1510 1507 1507 1507 1507 1507 1507 1507 1506 1505 1503 1501 1499 1498 1497 1495 1493 1491 1489 1487 1485 1484 1482 1480 1479 1478 1478 1477 1476 1475 1474 1473 1472 1472 1471 1470 1469 1468
1519 1517 1513 1511 1508 1506 1506 1507 1508 1508 1507 1508 1508 1508 1506 1504 1500 1498 1498 1498 1496 1495 1493 1491 1489 1487 1485 1483 1482 1480 1479 1478 1478 1477 1476 1475 1475 1474 1473 1472 1471 1470 1469 1467
1518 1517 1514 1512 1515 1513 1509 1509 1510 1510 1506 1508 1509 1508 1506 1503 1498 1497 1498 1497 1495 1494 1492 1490 1489 1487 1485 1483 1482 1480 1479 1478 1477 1477 1476 1475 1475 1474 1473 1472 1471 1470 1468 1467
1514 1514 1513 1512 1513 1506 1508 1510 1510 1511 1511 1510 1509 1508 1506 1504 1503 1501 1498 1497 1495 1493 1491 1489 1488 1486 1485 1483 1482 1480 1479 1478 1477 1476 1476 1475 1474 1473 1472 1471 1470 1469 1468 1467
1512 1510 1511 1511 1512 1511 1511 1510 1511 1513 1511 1510 1508 1507 1505 1503 1501 1499 1497 1495 1494 1492 1490 1489 1487 1486 1484 1483 1481 1480 1479 1478 1477 1476 1475 1474 1473 1473 1472 1470 1469 1468 1467 1466
1512 1512 1509 1510 1511 1512 1512 1512 1513 1512 1510 1508 1507 1505 1503 1501 1499 1497 1495 1493 1492 1491 1489 1488 1486 1485 1484 1482 1481 1480 1479 1478 1477 1476 1475 1474 1473 1472 1471 1470 1469 1468 1467 1466
1511 1515 1513 1511 1508 1510 1511 1511 1511 1510 1509 1507 1505 1503 1501 1499 1497 1495 1493 1492 1490 1489 1488 1487 1486 1484 1483 1482 1481 1480 1478 1477 1477 1476 1474 1473 1472 1471 1470 1469 1469 1468 1466 1465
1511 1513 1511 1510 1509 1509 1509 1510 1509 1508 1506 1504 1502 1500 1499 1497 1495 1493 1491 1490 1489 1488 1487 1486 1485 1483 1482 1481 1480 1479 1478 1477 1476 1475 1474 1473 1472 1471 1469 1468 1467 1466 1465 1463
1511 1511 1511 1507 1509 1509 1509 1508 1507 1506 1504 1502 1500 1498 1496 1495 1493 1491 1490 1488 1487 1486 1485 1484 1483 1482 1481 1480 1479 1478 1477 1476 1475 1474 1473 1472 1471 1470 1469 1467 1466 1464 1463 1461